User: anonymous
Location: Unspecified
(0.0000°N, 0.0000°E)
Time: 01:31:38
(UTC+02:00)
Language:

Cosmos 1315 Rocket - Orbit

View from above orbital plane
View from above orbital plane
View from above satellite
View from above satellite

Ground track
Ground track

The orbit data is extracted from the following two-line orbital elements,

1 12904U 81103B   14244.06759099  .00001391  00000-0  10160-3 0  5732
2 12904 081.1811 359.1115 0030267 176.4268 183.7176 15.02681843339449
Epoch (UTC): 01 September 2014 01:37:19
Eccentricity: 0.0030267
inclination: 81.1811°
perigee height: 537 km
apogee height: 579 km
right ascension of ascending node: 359.1115°
argument of perigee: 176.4268°
revolutions per day: 15.02681843
mean anomaly at epoch: 183.7176°
orbit number at epoch: 33944

The dashed part of the orbit path shows where the satellite is in the earth's shadow,  

DLR